Location: Unspecified
(44.4377°N, 88.0525°W)
Time: 15:03:00
(UTC-05:00)

Okean 3 - Visible Passes

Search period start: 29 July 2015 00:00
Search period end: 08 August 2015 00:00
Orbit: 579 x 606 km, 82.5° (Epoch: 28 July)

Date Brightness Start Highest point End Pass type
(mag) Time Alt. Az. Time Alt. Az. Time Alt. Az.
30 Jul 4.4 20:49:31 10° NNW 20:53:43 52° W 20:57:53 10° S visible
31 Jul 5.2 20:58:46 10° NNW 21:02:40 34° W 21:06:33 10° SSW visible
01 Aug 5.9 21:08:10 10° NW 21:11:37 23° W 21:14:58 10° SW visible
02 Aug 6.4 21:17:51 10° NW 21:20:32 16° W 21:23:02 10° WSW visible
03 Aug 6.8 21:28:29 10° WNW 21:29:24 10° W 21:30:03 10° W visible
